Flag for Pakistan Weather past 2 weeks in Karachi, Pakistan

Now
90 °F

Scattered clouds.


Feels Like: 92 °F
Forecast: 81 / 88 °F
Wind: 16 mph from Southwest

Location: Karachi Airport

Current Time: Sep 22, 2014 at 1:28:31 PM

Latest Report: Sep 22, 2014 at 12:55 PM


Visibility: 5 mi

Pressure: 29.77 "Hg

Humidity: 46%

Dew point: 66 °F

Location of KarachiLocation

Historic Weather in Karachi — Graph

°F

Karachi temperature yesterday

Maximum temperature yesterday: 90 °F (at 1:00 PM)
Minimum temperature yesterday: 81 °F (at 12:25 AM)
Average temperature yesterday: 84 °F

Past Weeks' High & Low Weather Summary

 TemperatureHumidityPressure
High95 °F (Sep 8, 12:25 PM)84% (Sep 14, 2:55 AM)29.83 "Hg (Sep 14, 2:55 AM)
Low81 °F (Sep 8, 6:25 AM)44% (Sep 17, 12:55 PM)29.59 "Hg (Sep 10, 4:25 PM)
Average84 °F65%29.70 "Hg
* Reported Sep 7 12:25 PM — Sep 22 12:25 PM, Karachi, Weather by CustomWeather, © 2014

Note: Actual official high and low records may vary slightly from our data, if they occured in-between our weather recording intervals... More about our weather records

Advertising

Karachi weather history for previous 24 hours

 ConditionsComfort  
Time TempWeatherWind HumidityBarometerVisibility
12:25 PM
Sep 22
90 °FScattered clouds.15 mph46%29.80 "Hg5 mi
11:55 AM90 °FScattered clouds.14 mph49%29.80 "Hg4 mi
11:25 AM90 °FScattered clouds.12 mph49%29.80 "Hg4 mi
10:55 AM90 °FScattered clouds.15 mph49%29.83 "Hg4 mi
10:25 AM88 °FScattered clouds.13 mph52%29.83 "Hg4 mi
9:55 AM86 °FScattered clouds.10 mph59%29.83 "Hg4 mi
9:25 AM86 °FScattered clouds.12 mph59%29.83 "Hg4 mi
8:55 AM84 °FScattered clouds.13 mph66%29.80 "Hg4 mi
8:25 AM82 °FScattered clouds.12 mph70%29.80 "Hg4 mi
7:55 AM82 °FScattered clouds.8 mph74%29.80 "Hg4 mi
7:25 AM81 °FScattered clouds.7 mph79%29.77 "Hg4 mi
6:55 AM81 °FScattered clouds.8 mph74%29.77 "Hg4 mi
6:25 AM81 °FPartly sunny.7 mph74%29.77 "Hg4 mi
5:55 AM81 °FPassing clouds.6 mph74%29.74 "Hg4 mi
4:55 AM81 °FPassing clouds.9 mph79%29.74 "Hg4 mi
4:25 AM81 °FPassing clouds.5 mph79%29.74 "Hg4 mi
3:55 AM82 °FPassing clouds.8 mph74%29.74 "Hg4 mi
3:25 AM82 °FPassing clouds.8 mph74%29.74 "Hg4 mi
2:55 AM82 °FPassing clouds.9 mph74%29.74 "Hg4 mi
2:25 AM82 °FPassing clouds.9 mph74%29.74 "Hg4 mi
1:55 AM82 °FPassing clouds.10 mph74%29.74 "Hg4 mi
1:25 AM82 °FPassing clouds.12 mph74%29.77 "Hg4 mi
12:55 AM82 °FPassing clouds.9 mph74%29.77 "Hg4 mi
12:25 AM82 °FPassing clouds.8 mph74%29.77 "Hg4 mi
11:55 PM
Sep 21
82 °FPassing clouds.14 mph74%29.77 "Hg4 mi
11:25 PM82 °FPassing clouds.8 mph74%29.77 "Hg4 mi
10:55 PM82 °FPassing clouds.8 mph74%29.77 "Hg4 mi
10:25 PM82 °FPassing clouds.9 mph74%29.77 "Hg4 mi
9:55 PM82 °FPassing clouds.12 mph74%29.77 "Hg4 mi
9:25 PM82 °FPassing clouds.12 mph74%29.77 "Hg4 mi
8:55 PM82 °FPassing clouds.12 mph74%29.74 "Hg4 mi
8:25 PM82 °FPassing clouds.9 mph74%29.74 "Hg4 mi
7:55 PM82 °FPassing clouds.12 mph70%29.74 "Hg4 mi
7:25 PM82 °FPassing clouds.12 mph70%29.74 "Hg4 mi
6:55 PM82 °FPassing clouds.12 mph70%29.74 "Hg4 mi
6:25 PM84 °FPartly sunny.17 mph66%29.71 "Hg4 mi
5:55 PM86 °FPartly sunny.16 mph62%29.71 "Hg4 mi
5:25 PM86 °FPartly sunny.14 mph59%29.68 "Hg4 mi
4:55 PM86 °FPartly sunny.18 mph59%29.68 "Hg4 mi
4:25 PM88 °FPartly sunny.14 mph55%29.68 "Hg4 mi
3:55 PM88 °FPartly sunny.17 mph55%29.68 "Hg4 mi
3:25 PM88 °FBroken clouds.16 mph55%29.68 "Hg4 mi
2:55 PM88 °FBroken clouds.18 mph55%29.68 "Hg4 mi
2:25 PM88 °FBroken clouds.15 mph59%29.68 "Hg4 mi
1:55 PM88 °FBroken clouds.20 mph55%29.71 "Hg4 mi
1:30 PM88 °FBroken clouds.18 mph55%29.71 "Hg4 mi
1:00 PM90 °FBroken clouds.17 mph55%29.71 "Hg4 mi
Weather by CustomWeather, © 2014

See weather overviewHow to use our weather pages